Location: ???????
(55.9569°N, 38.6553°E)
Time: 06:06:27
(UTC+00:00)

Cosmos 2181 Rocket - Pass Details

Date: 23 May 2024
Orbit: 951 x 1015 km, 82.9° (Epoch: 23 June)

Event Time Altitude Azimuth Distance (km) Brightness Sun altitude
Rises 00:01:48 0° 347° (NNW) 3,754 7.7 -6.3°
Reaches altitude 10° 00:04:22 10° 346° (NNW) 2,793 7.0 -6.1°
Maximum altitude 00:10:44 71° 264° (W) 1,052 4.1 -5.5°
Drops below altitude 10° 00:16:59 10° 182° (S) 2,733 5.9 -5.0°
Sets 00:19:28 0° 180° (S) 3,667 6.6 -4.7°
